CW3001 Weather Reports


Display with metric or nautical units.
time (UTC)temp
F
wind
direction
speed
MPH
gust
MPH
rain 1hr
in
rain 24hr
in
rain mn
in
humidity
%
barometer
mb
20260901092530 70 226 8.0 13.0 0.00 0.08 0.01 75 1020.1
20260901092257 68 254 4.0 7.0 0.00 0.08 0.01 79 1020.0
20260901092145 69 226 6.0 10.0 0.00 0.08 0.01 75 1020.1
20260901091017 67 285 1.0 7.0 0.00 0.08 0.01 80 1020.2
20260901090518 66 286 4.0 10.0 0.00 0.08 0.01 81 1020.2
20260901090018 65 259 4.0 11.0 0.00 0.08 0.01 82 1020.2
20260901085518 65 255 8.0 11.0 0.00 0.08 0.01 83 1020.1
20260901085017 65 251 6.0 9.0 0.00 0.08 0.01 84 1020.2
20260901084518 65 283 3.0 7.0 0.00 0.08 0.01 84 1020.2
20260901084018 65 261 3.0 7.0 0.00 0.08 0.01 85 1020.1
20260901083518 65 262 3.0 9.0 0.00 0.08 0.01 87 1020.1
20260901083017 65 230 5.0 9.0 0.00 0.08 0.01 88 1020.0
20260901082901 64 261 6.0 9.0 0.01 0.08 0.01 88 1019.9
20260901082152 63 217 2.0 7.0 0.01 0.08 0.01 90 1019.8
20260901082107 63 233 5.0 7.0 0.01 0.08 0.01 90 1019.8
20260901081645 63 248 4.0 7.0 0.01 0.08 0.01 89 1019.8
20260901080858 63 251 5.0 7.0 0.01 0.08 0.01 90 1019.7
20260901080247 62 259 2.0 4.0 0.01 0.07 0.01 90 1019.6
20260901080139 62 265 5.0 7.0 0.01 0.08 0.01 90 1019.7
20260901075015 0 257 0.0 0.0 0.01 0.07 0.01 1019.5
20260901074528 62 257 0.0 0.0 0.01 0.07 0.01 90 1019.4
20260901074013 0 257 0.0 1.0 0.01 0.07 0.01 1019.4
20260901073512 0 257 0.0 3.0 0.01 0.07 0.01 1019.3
20260901073010 0 257 1.0 6.0 0.01 0.07 0.00 1019.4
20260901072511 0 257 3.0 11.0 0.00 0.07 0.00 1019.4
20260901072009 0 276 6.0 11.0 0.00 0.07 0.00 1019.5
20260901071843 0 272 4.0 7.0 0.00 0.07 0.00 1019.4
20260901071009 61 251 5.0 9.0 0.00 0.07 0.00 90 1019.3
20260901070505 61 235 6.0 10.0 0.00 0.07 0.00 90 1019.3
20260901070005 0 255 6.0 13.0 0.00 0.07 0.00 1019.3
20260901065506 61 245 8.0 13.0 0.00 0.07 0.00 90 1019.3
20260901065005 61 231 6.0 9.0 0.00 0.07 0.00 90 1019.3
20260901064507 61 226 6.0 9.0 0.00 0.07 0.00 90 1019.2
20260901064006 61 237 4.0 11.0 0.00 0.07 0.00 90 1019.1
20260901063853 61 238 4.0 11.0 0.00 0.07 0.00 90 1019.2
20260901063007 61 217 5.0 9.0 0.00 0.07 0.00 90 1019.0
20260901062505 61 226 5.0 9.0 0.00 0.07 0.00 91 1019.0
20260901062132 60 250 5.0 7.0 0.00 0.07 0.00 91 1018.8
20260901062126 60 224 5.0 7.0 0.00 0.07 0.00 91 1018.8
20260901062044 61 212 4.0 7.0 0.00 0.07 0.00 91 1018.9
20260901060850 60 206 4.0 9.0 0.00 0.07 0.00 91 1018.8
20260901060005 60 245 5.0 9.0 0.00 0.07 0.00 91 1018.8
20260901055505 60 214 5.0 9.0 0.00 0.07 0.00 91 1018.8
20260901055006 60 221 3.0 7.0 0.00 0.07 0.00 91 1018.7
20260901054504 60 240 5.0 9.0 0.00 0.07 0.00 91 1018.6
20260901054006 60 241 4.0 9.0 0.00 0.07 0.00 91 1018.6
20260901053847 60 230 4.0 6.0 0.00 0.07 0.00 91 1018.5
20260901053006 60 200 3.0 7.0 0.00 0.07 0.00 91 1018.5
20260901052505 60 244 5.0 7.0 0.00 0.07 0.00 91 1018.5
20260901052006 60 220 4.0 6.0 0.00 0.07 0.00 91 1018.5
20260901051849 60 188 4.0 6.0 0.00 0.07 0.00 91 1018.5
20260901051006 60 227 4.0 6.0 0.00 0.07 0.00 91 1018.6
20260901050505 60 212 3.0 6.0 0.00 0.07 0.00 91 1018.5
20260901050004 60 234 4.0 9.0 0.00 0.07 0.00 91 1018.5
20260901045504 60 217 3.0 9.0 0.00 0.07 0.00 91 1018.4
20260901045006 60 223 4.0 6.0 0.00 0.07 0.00 91 1018.5
20260901044506 60 227 3.0 5.0 0.00 0.07 0.00 91 1018.5
20260901044005 60 226 4.0 5.0 0.00 0.07 0.00 91 1018.4
20260901043505 60 227 3.0 4.0 0.00 0.07 0.00 91 1018.3
20260901043348 60 223 1.0 5.0 0.00 0.07 0.00 91 1018.3
20260901042505 60 219 3.0 5.0 0.00 0.07 0.00 91 1018.2
20260901042005 60 214 3.0 5.0 0.00 0.07 0.00 91 1018.1
20260901041519 60 197 2.0 6.0 0.00 0.07 0.00 91 1017.9
20260901041005 60 234 3.0 7.0 0.00 0.07 0.00 91 1018.0
20260901040505 60 207 4.0 7.0 0.00 0.07 0.00 91 1018.0
20260901040004 60 226 4.0 7.0 0.00 0.07 0.00 91 1018.0
20260901035504 60 219 4.0 7.0 0.00 0.07 0.00 91 1017.9
20260901035350 60 244 3.0 6.0 0.00 0.07 0.00 90 1017.9
20260901034504 60 221 4.0 6.0 0.00 0.07 0.00 90 1018.0
20260901034020 60 220 2.0 6.0 0.00 0.07 0.00 90 1017.9
20260901033506 60 226 3.0 7.0 0.00 0.07 0.00 90 1017.8
20260901033005 60 233 4.0 7.0 0.00 0.07 0.00 90 1017.9
20260901032507 60 204 4.0 7.0 0.00 0.07 0.00 90 1017.9
20260901032004 60 227 4.0 6.0 0.00 0.07 0.00 90 1017.9
20260901031506 60 210 3.0 6.0 0.00 0.07 0.00 90 1017.8
20260901031006 60 209 2.0 6.0 0.00 0.07 0.00 90 1017.9
20260901030506 60 207 3.0 5.0 0.00 0.07 0.00 90 1017.8
20260901030006 60 219 3.0 5.0 0.00 0.07 0.00 90 1017.8
20260901025505 59 216 3.0 4.0 0.00 0.07 0.00 89 1017.8
20260901025354 59 212 2.0 5.0 0.00 0.07 0.00 89 1017.7
20260901024505 59 216 3.0 5.0 0.00 0.07 0.00 89 1017.8
20260901024356 60 213 3.0 4.0 0.00 0.07 0.00 89 1017.6
20260901023504 60 217 2.0 4.0 0.00 0.07 0.00 89 1017.6
20260901023005 60 219 2.0 4.0 0.00 0.07 0.00 89 1017.6
20260901022505 60 220 3.0 5.0 0.00 0.07 0.00 89 1017.6
20260901022251 60 209 3.0 5.0 0.00 0.07 0.00 89 1017.8
20260901022132 60 223 3.0 5.0 0.00 0.07 0.00 89 1017.7
20260901021005 60 224 3.0 6.0 0.00 0.08 0.00 89 1017.9
20260901020804 60 219 3.0 6.0 0.00 0.08 0.00 88 1017.9
20260901020632 60 219 3.0 6.0 0.00 0.08 0.00 89 1017.9
20260901015506 60 219 3.0 6.0 0.00 0.08 0.00 88 1017.9
20260901015007 60 214 3.0 5.0 0.00 0.08 0.00 88 1018.0
20260901014506 60 210 3.0 5.0 0.00 0.08 0.00 87 1017.8
20260901014006 60 206 2.0 4.0 0.00 0.08 0.00 87 1017.9
20260901013518 60 204 2.0 5.0 0.00 0.08 0.00 87 1017.8
20260901013005 60 206 3.0 5.0 0.00 0.08 0.00 87 1017.8
20260901012504 61 207 3.0 5.0 0.00 0.08 0.00 87 1017.8
20260901012006 61 209 1.0 5.0 0.00 0.08 0.00 87 1017.7
20260901011505 61 209 2.0 5.0 0.00 0.08 0.00 87 1017.8
20260901011007 61 214 3.0 6.0 0.00 0.08 0.00 87 1017.7
20260901010908 61 224 3.0 6.0 0.00 0.08 0.00 87 1017.8
20260901010007 61 228 4.0 5.0 0.00 0.08 0.00 87 1017.7
20260901005505 61 235 3.0 6.0 0.00 0.08 0.00 87 1017.6
20260901005247 61 244 4.0 6.0 0.00 0.08 0.00 86 1017.6
20260901005133 61 234 3.0 6.0 0.00 0.08 0.00 86 1017.6
20260901004004 61 234 3.0 6.0 0.00 0.08 0.00 86 1017.6
20260901003504 61 241 3.0 7.0 0.00 0.15 0.00 86 1017.6
20260901003005 61 231 4.0 9.0 0.00 0.15 0.00 86 1017.5
20260901002504 61 220 5.0 9.0 0.00 0.15 0.00 86 1017.6
20260901002350 61 212 4.0 10.0 0.00 0.15 0.00 86 1017.6
20260901001506 62 241 5.0 10.0 0.00 0.15 0.00 86 1017.6
20260901001006 62 231 4.0 10.0 0.00 0.15 0.00 85 1017.5
20260901000506 62 233 5.0 11.0 0.00 0.15 0.00 85 1017.4
20260901000259 62 220 6.0 11.0 0.00 0.15 0.00 85 1017.4
20260901000144 62 212 4.0 11.0 0.00 0.15 0.00 85 1017.4
20260831235004 62 228 5.0 11.0 0.00 0.15 0.00 85 1017.5
20260831234505 62 220 7.0 11.0 0.00 0.15 0.00 85 1017.5
20260831234006 62 224 6.0 10.0 0.00 0.15 0.00 85 1017.5
20260831233504 62 227 4.0 9.0 0.00 0.15 0.00 85 1017.4
20260831233017 62 217 4.0 7.0 0.00 0.15 0.00 85 1017.4
20260831232504 62 227 4.0 7.0 0.00 0.15 0.00 85 1017.4
20260831232004 62 251 4.0 6.0 0.00 0.15 0.00 85 1017.5
20260831231505 62 240 4.0 7.0 0.00 0.15 0.00 84 1017.3
20260831231358 62 223 4.0 9.0 0.00 0.15 0.00 84 1017.4
20260831230502 62 244 5.0 10.0 0.00 0.15 0.00 84 1017.3
20260831230004 62 226 5.0 10.0 0.00 0.15 0.00 84 1017.3
20260831225502 62 248 4.0 9.0 0.00 0.15 0.00 84 1017.3
20260831225003 62 259 4.0 9.0 0.00 0.15 0.00 84 1017.4
20260831224503 62 252 6.0 9.0 0.00 0.15 0.00 84 1017.3
20260831224004 62 252 5.0 7.0 0.00 0.15 0.00 84 1017.3
20260831223503 62 237 5.0 10.0 0.00 0.15 0.00 83 1017.3
20260831223002 62 193 6.0 10.0 0.00 0.15 0.00 83 1017.3
20260831222853 62 220 5.0 10.0 0.00 0.15 0.00 83 1017.3
20260831222002 62 234 5.0 9.0 0.00 0.15 0.00 83 1017.2
20260831221501 62 230 5.0 10.0 0.00 0.15 0.00 83 1017.3
20260831221002 63 226 5.0 10.0 0.00 0.15 0.00 82 1017.2
20260831220501 63 237 4.0 9.0 0.00 0.15 0.00 82 1017.2
20260831220003 63 210 5.0 9.0 0.00 0.15 0.15 82 1017.2
20260831215501 63 227 5.0 9.0 0.00 0.15 0.15 81 1017.1
20260831215000 63 224 4.0 9.0 0.00 0.15 0.15 81 1017.1
20260831214848 63 251 5.0 9.0 0.00 0.15 0.15 81 1017.2
20260831214002 63 237 4.0 10.0 0.00 0.15 0.15 81 1017.1
20260831213505 63 255 6.0 10.0 0.00 0.15 0.15 81 1017.2
20260831213351 63 228 5.0 9.0 0.00 0.15 0.15 81 1017.1
20260831212503 63 227 4.0 9.0 0.00 0.15 0.15 80 1017.1
20260831212005 63 227 4.0 10.0 0.00 0.15 0.15 80 1017.1
20260831211844 63 228 5.0 10.0 0.00 0.15 0.15 80 1017.0
20260831211001 63 228 4.0 10.0 0.00 0.15 0.15 80 1017.0
20260831210503 63 237 5.0 9.0 0.00 0.15 0.15 80 1017.0
20260831210000 63 213 5.0 9.0 0.00 0.15 0.15 79 1017.0
20260831205845 63 219 5.0 9.0 0.00 0.15 0.15 79 1017.0
20260831205000 63 234 5.0 7.0 0.00 0.15 0.15 78 1016.9
20260831204500 63 238 5.0 7.0 0.00 0.15 0.15 78 1016.7
20260831203959 63 235 4.0 9.0 0.00 0.15 0.15 78 1016.7
20260831203500 63 235 5.0 9.0 0.00 0.15 0.15 78 1016.7
20260831202959 63 241 4.0 7.0 0.00 0.15 0.15 78 1016.7
20260831202839 63 254 3.0 10.0 0.00 0.15 0.15 78 1016.7
20260831201958 63 231 5.0 10.0 0.00 0.15 0.15 78 1016.6
20260831201457 63 238 4.0 7.0 0.00 0.15 0.15 78 1016.6
20260831200957 62 238 3.0 7.0 0.00 0.15 0.15 78 1016.6
20260831200458 62 235 4.0 7.0 0.00 0.15 0.15 78 1016.5
20260831195958 62 238 3.0 7.0 0.00 0.15 0.15 78 1016.5
20260831195459 62 228 5.0 7.0 0.00 0.15 0.15 78 1016.3
20260831194958 62 237 3.0 5.0 0.00 0.15 0.15 77 1016.3
20260831194457 62 269 0.0 0.0 0.00 0.15 0.15 76 1016.2
20260831194338 62 271 0.0 0.0 0.00 0.15 0.15 76 1016.1
20260831193457 62 271 0.0 0.0 0.00 0.15 0.15 76 1016.1
20260831193000 62 271 0.0 0.0 0.00 0.15 0.15 75 1016.1
20260831192457 62 271 0.0 0.0 0.00 0.15 0.15 75 1016.0
20260831191957 63 271 0.0 0.0 0.00 0.15 0.15 75 1016.0
20260831191838 63 272 0.0 0.0 0.00 0.15 0.15 74 1015.9
20260831190958 64 272 0.0 0.0 0.00 0.15 0.15 74 1015.8
20260831190457 64 272 0.0 3.0 0.00 0.15 0.15 73 1015.8
20260831185958 64 272 0.0 3.0 0.00 0.15 0.15 71 1015.8
20260831185456 65 275 2.0 5.0 0.00 0.15 0.15 71 1015.7
20260831184957 65 276 2.0 5.0 0.00 0.15 0.15 70 1015.6
20260831184456 65 272 3.0 5.0 0.00 0.16 0.15 70 1015.6
20260831183956 65 281 2.0 6.0 0.00 0.16 0.15 69 1015.4
20260831183457 65 275 4.0 6.0 0.00 0.16 0.15 69 1015.4
20260831182957 66 282 2.0 7.0 0.00 0.16 0.15 68 1015.4
20260831182456 66 278 5.0 7.0 0.00 0.16 0.15 68 1015.3
20260831181955 66 272 4.0 7.0 0.00 0.16 0.15 67 1015.2
20260831181456 67 312 4.0 7.0 0.00 0.16 0.15 67 1015.1
20260831180956 67 296 4.0 6.0 0.00 0.16 0.15 67 1015.0
20260831180456 67 282 2.0 11.0 0.00 0.16 0.15 66 1014.8
20260831175954 67 276 4.0 11.0 0.00 0.16 0.15 65 1014.8
20260831175457 67 323 3.0 7.0 0.00 0.16 0.15 65 1014.8
20260831174954 67 296 4.0 12.0 0.00 0.16 0.15 64 1014.7
20260831174454 68 299 6.0 12.0 0.00 0.16 0.15 64 1014.7
20260831173954 68 276 5.0 12.0 0.00 0.16 0.15 63 1014.6
20260831173837 68 276 6.0 16.0 0.00 0.16 0.15 62 1014.5
20260831173340 68 255 8.0 16.0 0.00 0.16 0.15 61 1014.5
20260831172456 68 281 8.0 16.0 0.00 0.16 0.15 62 1014.4
20260831171955 69 278 7.0 16.0 0.00 0.16 0.15 61 1014.4
20260831171742 69 250 7.0 16.0 0.00 0.16 0.15 61 1014.3
20260831171626 69 288 5.0 16.0 0.00 0.16 0.15 62 1014.2
20260831170835 69 298 8.0 16.0 0.00 0.16 0.15 60 1014.1
20260831165955 69 281 9.0 19.0 0.00 0.16 0.15 61 1014.0
20260831165454 69 305 8.0 19.0 0.00 0.16 0.15 61 1014.0
20260831164953 69 282 8.0 18.0 0.00 0.16 0.15 61 1014.0
20260831164453 69 307 9.0 20.0 0.00 0.16 0.15 60 1014.0
20260831164347 69 348 11.0 20.0 0.00 0.16 0.15 60 1013.9
20260831163843 69 259 5.0 17.0 0.00 0.16 0.15 61 1013.9
20260831162952 69 298 9.0 18.0 0.00 0.16 0.15 60 1013.8
20260831162452 69 258 8.0 18.0 0.00 0.16 0.15 59 1013.7
20260831161952 70 305 11.0 20.0 0.00 0.16 0.15 59 1013.8
20260831161453 70 289 10.0 20.0 0.00 0.16 0.15 59 1013.7
20260831160951 70 336 8.0 17.0 0.00 0.16 0.15 59 1013.6
20260831160451 70 274 9.0 24.0 0.00 0.16 0.15 59 1013.7
20260831155951 70 313 12.0 24.0 0.00 0.16 0.15 59 1013.6
20260831155454 71 299 11.0 20.0 0.00 0.16 0.15 60 1013.6
20260831154951 71 259 10.0 18.0 0.00 0.16 0.15 60 1013.4
20260831154839 71 274 10.0 18.0 0.00 0.16 0.15 60 1013.4
20260831153952 71 354 12.0 18.0 0.00 0.16 0.15 60 1013.4
20260831153452 71 354 9.0 18.0 0.00 0.16 0.15 60 1013.4
20260831152950 71 300 8.0 21.0 0.00 0.16 0.15 60 1013.3
20260831152451 70 243 14.0 22.0 0.00 0.16 0.15 60 1013.2
20260831151951 70 274 14.0 22.0 0.00 0.16 0.15 61 1013.1
20260831151452 70 268 10.0 22.0 0.00 0.16 0.15 62 1013.1
20260831151005 70 341 11.0 22.0 0.00 0.16 0.15 61 1013.0
20260831150452 71 306 5.0 17.0 0.00 0.16 0.15 62 1012.9
20260831145950 70 281 10.0 20.0 0.00 0.16 0.15 60 1013.0
20260831145451 70 313 10.0 20.0 0.00 0.16 0.15 64 1012.9
20260831144951 70 300 10.0 17.0 0.00 0.16 0.15 62 1012.9
20260831144451 70 331 7.0 20.0 0.00 0.16 0.15 60 1012.8
20260831143950 71 288 6.0 20.0 0.00 0.16 0.15 61 1012.6
20260831143449 70 309 10.0 16.0 0.00 0.16 0.15 63 1012.6
20260831142950 69 337 9.0 20.0 0.00 0.16 0.15 62 1012.5
20260831142451 70 289 11.0 20.0 0.00 0.16 0.15 61 1012.4
20260831142337 71 321 8.0 19.0 0.00 0.16 0.15 60 1012.3
20260831141448 71 274 6.0 19.0 0.00 0.16 0.15 60 1012.2
20260831141338 71 321 7.0 19.0 0.00 0.16 0.15 62 1012.1
20260831140449 71 348 11.0 19.0 0.00 0.16 0.15 60 1012.1
20260831135948 71 298 9.0 20.0 0.00 0.16 0.15 63 1011.9
20260831135448 70 275 11.0 20.0 0.00 0.16 0.15 63 1011.9
20260831134950 70 247 9.0 15.0 0.00 0.16 0.15 66 1011.8
20260831134450 69 269 8.0 16.0 0.00 0.16 0.15 65 1011.8
20260831133949 69 336 6.0 16.0 0.00 0.16 0.15 67 1011.9
20260831133450 69 302 5.0 18.0 0.00 0.16 0.15 71 1011.7
20260831133346 70 221 11.0 18.0 0.00 0.16 0.15 69 1011.9
20260831132448 70 272 9.0 17.0 0.00 0.16 0.15 68 1011.7
20260831131948 70 262 8.0 17.0 0.00 0.16 0.15 68 1011.5
20260831131449 70 282 9.0 16.0 0.00 0.16 0.15 67 1011.5
20260831131336 68 265 9.0 15.0 0.00 0.16 0.15 70 1011.6
20260831130449 68 348 7.0 22.0 0.00 0.16 0.15 71 1011.5
20260831130336 68 285 14.0 22.0 0.00 0.16 0.15 69 1011.4
20260831125448 69 252 9.0 17.0 0.00 0.16 0.15 69 1011.3
20260831124946 69 283 11.0 17.0 0.00 0.16 0.15 70 1011.3
20260831124446 68 269 7.0 17.0 0.00 0.16 0.15 74 1011.3
20260831123948 67 244 9.0 17.0 0.00 0.16 0.15 73 1011.4
20260831123446 65 240 10.0 15.0 0.00 0.16 0.15 78 1011.3
20260831122946 64 230 5.0 17.0 0.00 0.16 0.15 78 1011.3
20260831122837 65 282 8.0 21.0 0.00 0.16 0.15 78 1011.2
20260831121946 65 252 13.0 21.0 0.00 0.16 0.15 76 1011.1
20260831121836 65 252 7.0 17.0 0.00 0.16 0.15 75 1010.9
20260831120947 65 264 9.0 18.0 0.00 0.16 0.15 75 1010.8
20260831120445 65 281 11.0 18.0 0.00 0.16 0.15 75 1010.8
20260831115946 65 262 7.0 18.0 0.00 0.16 0.15 76 1010.8
20260831115444 65 268 11.0 19.0 0.00 0.16 0.15 76 1010.6
20260831114945 65 230 12.0 19.0 0.00 0.16 0.15 76 1010.6
20260831114831 66 310 5.0 15.0 0.00 0.16 0.15 77 1010.6
20260831113945 66 278 7.0 23.0 0.00 0.16 0.15 78 1010.7
20260831113446 66 237 12.0 24.0 0.00 0.16 0.15 78 1010.7
20260831112946 65 206 6.0 24.0 0.00 0.16 0.15 79 1010.6
20260831112855 65 266 10.0 21.0 0.00 0.16 0.15 78 1010.5
20260831111944 66 213 13.0 21.0 0.00 0.16 0.15 79 1010.4
20260831111444 65 241 10.0 16.0 0.00 0.16 0.15 82 1010.3
20260831110946 64 224 4.0 11.0 0.00 0.17 0.15 85 1010.4
20260831110445 64 223 6.0 14.0 0.00 0.17 0.15 84 1010.4
20260831105944 64 238 7.0 14.0 0.00 0.17 0.15 84 1010.5
20260831105446 64 240 6.0 12.0 0.00 0.17 0.15 84 1010.4
20260831104944 64 298 6.0 16.0 0.00 0.17 0.15 84 1010.4
20260831104446 64 228 11.0 17.0 0.00 0.17 0.15 83 1010.6
20260831103945 64 259 10.0 18.0 0.01 0.17 0.15 82 1010.4
20260831103444 65 224 12.0 18.0 0.02 0.17 0.15 82 1010.3
20260831102943 65 231 8.0 13.0 0.07 0.17 0.15 84 1010.4
20260831102444 64 274 7.0 12.0 0.07 0.17 0.15 86 1010.3
20260831102331 63 255 6.0 16.0 0.07 0.17 0.15 85 1010.3
20260831101444 63 261 8.0 16.0 0.07 0.17 0.15 87 1010.4
20260831100944 63 231 7.0 14.0 0.07 0.17 0.15 88 1010.3
20260831100444 63 219 9.0 14.0 0.07 0.17 0.15 87 1010.4
20260831095943 62 217 6.0 13.0 0.07 0.09 0.15 87 1010.2
20260831095444 62 233 7.0 15.0 0.07 0.09 0.15 87 1010.2
20260831094941 62 238 8.0 15.0 0.07 0.09 0.15 86 1010.2
20260831094824 62 228 7.0 13.0 0.06 0.09 0.14 85 1010.1
20260831093944 63 281 6.0 15.0 0.06 0.09 0.13 84 1010.2
20260831093443 63 264 9.0 20.0 0.05 0.09 0.11 83 1010.2
20260831092942 64 243 13.0 21.0 0.00 0.09 0.08 80 1009.9